Time,TemperatureF,DewpointF,PressureIn,WindDirection,WindDirectionDegrees,WindSpeedMPH,WindSpeedGustMPH,Humidity,HourlyPrecipIn,Conditions,Clouds,dailyrainin,SoftwareType,DateUTC
2013-07-02 00:01:00,63.0,54.0,30.19,ESE,113,0.0,0.0,73,0.00,,,0.00,,2013-07-02 05:01:00,
2013-07-02 00:11:00,63.0,54.0,30.19,ESE,113,0.0,0.0,73,0.00,,,0.00,,2013-07-02 05:11:00,
2013-07-02 00:22:00,62.0,55.0,30.18,ESE,113,0.0,0.0,79,0.00,,,0.00,,2013-07-02 05:22:00,
2013-07-02 00:32:00,62.0,55.0,30.18,ESE,113,0.0,0.0,79,0.00,,,0.00,,2013-07-02 05:32:00,
2013-07-02 00:43:00,62.0,55.0,30.18,ESE,113,0.0,0.0,79,0.00,,,0.00,,2013-07-02 05:43:00,
2013-07-02 00:53:00,60.0,54.0,30.18,ESE,113,0.0,0.0,80,0.00,,,0.00,,2013-07-02 05:53:00,
2013-07-02 01:01:00,60.0,54.0,30.18,ESE,113,0.0,0.0,80,0.00,,,0.00,,2013-07-02 06:01:00,
2013-07-02 01:11:00,60.0,54.0,30.18,ESE,113,0.0,0.0,80,0.00,,,0.00,,2013-07-02 06:11:00,
2013-07-02 01:23:00,59.0,52.0,30.18,ESE,113,0.0,0.0,79,0.00,,,0.00,,2013-07-02 06:23:00,
2013-07-02 01:33:00,59.0,52.0,30.18,ESE,113,0.0,0.0,79,0.00,,,0.00,,2013-07-02 06:33:00,
2013-07-02 01:43:00,59.0,52.0,30.18,ESE,113,0.0,0.0,79,0.00,,,0.00,,2013-07-02 06:43:00,
2013-07-02 01:53:00,59.0,52.0,30.20,ESE,113,0.0,0.0,78,0.00,,,0.00,,2013-07-02 06:53:00,
2013-07-02 02:01:00,59.0,52.0,30.20,ESE,113,0.0,0.0,78,0.00,,,0.00,,2013-07-02 07:01:00,
2013-07-02 02:11:00,59.0,52.0,30.20,ESE,113,0.0,0.0,78,0.00,,,0.00,,2013-07-02 07:11:00,
2013-07-02 02:22:00,58.0,51.0,30.18,ESE,113,0.0,0.0,77,0.00,,,0.00,,2013-07-02 07:22:00,
2013-07-02 02:33:00,58.0,51.0,30.18,ESE,113,0.0,0.0,77,0.00,,,0.00,,2013-07-02 07:33:00,
2013-07-02 02:44:00,58.0,51.0,30.18,ESE,113,0.0,0.0,77,0.00,,,0.00,,2013-07-02 07:44:00,
2013-07-02 02:53:00,58.0,51.0,30.16,ESE,113,0.0,0.0,77,0.00,,,0.00,,2013-07-02 07:53:00,
2013-07-02 03:02:00,58.0,51.0,30.16,ESE,113,0.0,0.0,77,0.00,,,0.00,,2013-07-02 08:02:00,
2013-07-02 03:12:00,58.0,51.0,30.16,ESE,113,0.0,0.0,77,0.00,,,0.00,,2013-07-02 08:12:00,
2013-07-02 03:22:00,58.0,51.0,30.16,ESE,113,0.0,0.0,77,0.00,,,0.00,,2013-07-02 08:22:00,
2013-07-02 03:33:00,58.0,51.0,30.16,ESE,113,0.0,0.0,77,0.00,,,0.00,,2013-07-02 08:33:00,
2013-07-02 03:44:00,58.0,51.0,30.16,ESE,113,0.0,0.0,77,0.00,,,0.00,,2013-07-02 08:44:00,
2013-07-02 03:53:00,57.0,51.0,30.17,ESE,113,0.0,0.0,79,0.00,,,0.00,,2013-07-02 08:53:00,
2013-07-02 04:01:00,57.0,51.0,30.17,ESE,113,0.0,0.0,79,0.00,,,0.00,,2013-07-02 09:01:00,
2013-07-02 04:11:00,57.0,51.0,30.17,ESE,113,0.0,0.0,79,0.00,,,0.00,,2013-07-02 09:11:00,
2013-07-02 04:23:00,57.0,50.0,30.16,ESE,113,0.0,0.0,77,0.00,,,0.00,,2013-07-02 09:23:00,
2013-07-02 04:33:00,57.0,50.0,30.16,ESE,113,0.0,0.0,77,0.00,,,0.00,,2013-07-02 09:33:00,
2013-07-02 04:43:00,57.0,50.0,30.16,ESE,113,0.0,0.0,77,0.00,,,0.00,,2013-07-02 09:43:00,
2013-07-02 04:52:00,56.0,49.0,30.16,ESE,113,0.0,0.0,77,0.00,,,0.00,,2013-07-02 09:52:00,
2013-07-02 05:01:00,56.0,49.0,30.16,ESE,113,0.0,0.0,77,0.00,,,0.00,,2013-07-02 10:01:00,
2013-07-02 05:11:00,56.0,49.0,30.16,ESE,113,0.0,0.0,77,0.00,,,0.00,,2013-07-02 10:11:00,
2013-07-02 05:22:00,56.0,49.0,30.16,ESE,113,0.0,0.0,76,0.00,,,0.00,,2013-07-02 10:22:00,
2013-07-02 05:33:00,56.0,49.0,30.16,ESE,113,0.0,0.0,76,0.00,,,0.00,,2013-07-02 10:33:00,
2013-07-02 05:44:00,56.0,49.0,30.16,ESE,113,0.0,0.0,76,0.00,,,0.00,,2013-07-02 10:44:00,
2013-07-02 05:52:00,56.0,49.0,30.18,ESE,113,0.0,0.0,76,0.00,,,0.00,,2013-07-02 10:52:00,
2013-07-02 06:01:00,56.0,49.0,30.18,ESE,113,0.0,0.0,76,0.00,,,0.00,,2013-07-02 11:01:00,
2013-07-02 06:11:00,56.0,49.0,30.18,ESE,113,0.0,0.0,76,0.00,,,0.00,,2013-07-02 11:11:00,
2013-07-02 06:22:00,56.0,48.0,30.19,ESE,113,0.0,0.0,75,0.00,,,0.00,,2013-07-02 11:22:00,
2013-07-02 06:33:00,56.0,48.0,30.19,ESE,113,0.0,0.0,75,0.00,,,0.00,,2013-07-02 11:33:00,
2013-07-02 06:42:00,56.0,48.0,30.19,ESE,113,0.0,0.0,75,0.00,,,0.00,,2013-07-02 11:42:00,
2013-07-02 06:52:00,56.0,48.0,30.19,ESE,113,0.0,0.0,75,0.00,,,0.00,,2013-07-02 11:52:00,
2013-07-02 07:00:00,56.0,48.0,30.20,ESE,113,0.0,0.0,75,0.00,,,0.00,,2013-07-02 12:00:00,
2013-07-02 07:01:00,56.0,48.0,30.19,ESE,113,0.0,0.0,75,0.00,,,0.00,,2013-07-02 12:01:00,
2013-07-02 07:11:00,56.0,48.0,30.19,ESE,113,0.0,0.0,75,0.00,,,0.00,,2013-07-02 12:11:00,
2013-07-02 07:23:00,56.0,48.0,30.20,ESE,113,0.0,0.0,75,0.00,,,0.00,,2013-07-02 12:23:00,
2013-07-02 07:33:00,56.0,48.0,30.20,ESE,113,0.0,0.0,75,0.00,,,0.00,,2013-07-02 12:33:00,
2013-07-02 07:43:00,56.0,48.0,30.20,ESE,113,0.0,0.0,75,0.00,,,0.00,,2013-07-02 12:43:00,
2013-07-02 07:52:00,56.0,48.0,30.20,ESE,113,0.0,0.0,75,0.00,,,0.00,,2013-07-02 12:52:00,
2013-07-02 08:52:00,57.0,50.0,30.21,ESE,113,0.0,0.0,77,0.00,,,0.00,,2013-07-02 13:52:00,
2013-07-02 09:02:00,57.0,50.0,30.21,ESE,113,0.0,0.0,77,0.00,,,0.00,,2013-07-02 14:02:00,
2013-07-02 09:11:00,57.0,50.0,30.21,ESE,113,0.0,0.0,77,0.00,,,0.00,,2013-07-02 14:11:00,
2013-07-02 09:22:00,63.0,50.0,30.21,ESE,113,0.0,0.0,62,0.00,,,0.00,,2013-07-02 14:22:00,
2013-07-02 09:33:00,63.0,50.0,30.21,ESE,113,0.0,0.0,62,0.00,,,0.00,,2013-07-02 14:33:00,
2013-07-02 09:43:00,63.0,50.0,30.21,ESE,113,0.0,0.0,62,0.00,,,0.00,,2013-07-02 14:43:00,
2013-07-02 09:53:00,66.0,50.0,30.21,East,97,0.0,1.0,56,0.00,,,0.00,,2013-07-02 14:53:00,
2013-07-02 10:02:00,66.0,50.0,30.21,East,97,0.0,1.0,56,0.00,,,0.00,,2013-07-02 15:02:00,
2013-07-02 10:11:00,66.0,50.0,30.21,East,97,0.0,1.0,56,0.00,,,0.00,,2013-07-02 15:11:00,
2013-07-02 10:22:00,69.0,51.0,30.21,SE,145,0.0,6.0,52,0.00,,,0.00,,2013-07-02 15:22:00,
2013-07-02 10:33:00,69.0,51.0,30.21,SE,145,0.0,6.0,52,0.00,,,0.00,,2013-07-02 15:33:00,
2013-07-02 10:44:00,69.0,51.0,30.21,SE,145,0.0,6.0,52,0.00,,,0.00,,2013-07-02 15:44:00,
2013-07-02 10:53:00,70.0,50.0,30.22,ENE,78,0.0,1.0,50,0.00,,,0.00,,2013-07-02 15:53:00,
2013-07-02 11:01:00,70.0,50.0,30.22,ENE,78,0.0,1.0,50,0.00,,,0.00,,2013-07-02 16:01:00,
2013-07-02 11:12:00,70.0,50.0,30.22,ENE,78,0.0,1.0,50,0.00,,,0.00,,2013-07-02 16:12:00,
2013-07-02 11:22:00,72.0,51.0,30.21,SE,144,0.0,8.0,47,0.00,,,0.00,,2013-07-02 16:22:00,
2013-07-02 11:33:00,72.0,51.0,30.21,SE,144,0.0,8.0,47,0.00,,,0.00,,2013-07-02 16:33:00,
2013-07-02 11:43:00,72.0,51.0,30.21,SE,144,0.0,8.0,47,0.00,,,0.00,,2013-07-02 16:43:00,
2013-07-02 11:52:00,72.0,51.0,30.21,East,93,0.0,7.0,48,0.00,,,0.00,,2013-07-02 16:52:00,
2013-07-02 12:02:00,72.0,51.0,30.21,East,93,0.0,7.0,48,0.00,,,0.00,,2013-07-02 17:02:00,
2013-07-02 12:11:00,72.0,51.0,30.21,East,93,0.0,7.0,48,0.00,,,0.00,,2013-07-02 17:11:00,
2013-07-02 12:33:00,74.0,52.0,30.20,SE,140,0.0,7.0,46,0.00,,,0.00,,2013-07-02 17:33:00,
2013-07-02 12:43:00,74.0,52.0,30.20,SE,140,0.0,7.0,46,0.00,,,0.00,,2013-07-02 17:43:00,
2013-07-02 12:53:00,75.0,50.0,30.21,NNE,13,0.0,5.0,42,0.00,,,0.00,,2013-07-02 17:53:00,
2013-07-02 13:02:00,75.0,50.0,30.21,NNE,13,0.0,5.0,42,0.00,,,0.00,,2013-07-02 18:02:00,
2013-07-02 13:12:00,75.0,50.0,30.21,NNE,13,0.0,5.0,42,0.00,,,0.00,,2013-07-02 18:12:00,
2013-07-02 13:23:00,76.0,51.0,30.20,ENE,61,1.0,7.0,41,0.00,,,0.00,,2013-07-02 18:23:00,
2013-07-02 13:34:00,76.0,51.0,30.20,ENE,61,1.0,7.0,41,0.00,,,0.00,,2013-07-02 18:34:00,
2013-07-02 13:43:00,76.0,51.0,30.20,ENE,61,1.0,7.0,41,0.00,,,0.00,,2013-07-02 18:43:00,
2013-07-02 13:53:00,77.0,50.0,30.19,East,96,0.0,9.0,39,0.00,,,0.00,,2013-07-02 18:53:00,
2013-07-02 14:01:00,77.0,50.0,30.19,East,96,0.0,9.0,39,0.00,,,0.00,,2013-07-02 19:01:00,
2013-07-02 14:12:00,77.0,50.0,30.19,East,96,0.0,9.0,39,0.00,,,0.00,,2013-07-02 19:12:00,
2013-07-02 14:22:00,79.0,49.0,30.19,NE,47,1.0,7.0,35,0.00,,,0.00,,2013-07-02 19:22:00,
2013-07-02 14:34:00,79.0,49.0,30.19,NE,47,1.0,7.0,35,0.00,,,0.00,,2013-07-02 19:34:00,
2013-07-02 14:43:00,79.0,49.0,30.19,NE,47,1.0,7.0,35,0.00,,,0.00,,2013-07-02 19:43:00,
2013-07-02 14:53:00,79.0,50.0,30.15,NE,47,0.0,6.0,37,0.00,,,0.00,,2013-07-02 19:53:00,
2013-07-02 15:02:00,79.0,50.0,30.15,NE,47,0.0,6.0,37,0.00,,,0.00,,2013-07-02 20:02:00,
2013-07-02 15:11:00,79.0,50.0,30.15,NE,47,0.0,6.0,37,0.00,,,0.00,,2013-07-02 20:11:00,
2013-07-02 15:22:00,80.0,48.0,30.16,SE,126,1.0,8.0,33,0.00,,,0.00,,2013-07-02 20:22:00,
2013-07-02 15:33:00,80.0,48.0,30.16,SE,126,1.0,8.0,33,0.00,,,0.00,,2013-07-02 20:33:00,
2013-07-02 15:43:00,80.0,48.0,30.16,SE,126,1.0,8.0,33,0.00,,,0.00,,2013-07-02 20:43:00,
2013-07-02 15:52:00,80.0,47.0,30.16,ENE,65,0.0,13.0,32,0.00,,,0.00,,2013-07-02 20:52:00,
2013-07-02 16:02:00,80.0,47.0,30.16,ENE,65,0.0,13.0,32,0.00,,,0.00,,2013-07-02 21:02:00,
2013-07-02 16:11:00,80.0,47.0,30.16,ENE,65,0.0,13.0,32,0.00,,,0.00,,2013-07-02 21:11:00,
2013-07-02 16:22:00,80.0,48.0,30.12,ESE,121,1.0,10.0,33,0.00,,,0.00,,2013-07-02 21:22:00,
2013-07-02 16:33:00,80.0,48.0,30.12,ESE,121,1.0,10.0,33,0.00,,,0.00,,2013-07-02 21:33:00,
2013-07-02 16:44:00,80.0,48.0,30.12,ESE,121,1.0,10.0,33,0.00,,,0.00,,2013-07-02 21:44:00,
2013-07-02 16:52:00,79.0,48.0,30.12,ESE,121,1.0,10.0,34,0.00,,,0.00,,2013-07-02 21:52:00,
2013-07-02 17:01:00,79.0,48.0,30.12,ESE,121,1.0,10.0,34,0.00,,,0.00,,2013-07-02 22:01:00,
2013-07-02 17:11:00,79.0,48.0,30.12,ESE,121,1.0,10.0,34,0.00,,,0.00,,2013-07-02 22:11:00,
2013-07-02 17:22:00,78.0,48.0,30.11,SE,130,0.0,9.0,35,0.00,,,0.00,,2013-07-02 22:22:00,
2013-07-02 17:34:00,78.0,48.0,30.11,SE,130,0.0,9.0,35,0.00,,,0.00,,2013-07-02 22:34:00,
2013-07-02 17:43:00,78.0,48.0,30.11,SE,130,0.0,9.0,35,0.00,,,0.00,,2013-07-02 22:43:00,
2013-07-02 17:53:00,78.0,48.0,30.11,ESE,117,1.0,11.0,35,0.00,,,0.00,,2013-07-02 22:53:00,
2013-07-02 18:01:00,78.0,48.0,30.11,ESE,117,1.0,11.0,35,0.00,,,0.00,,2013-07-02 23:01:00,
2013-07-02 18:11:00,78.0,48.0,30.11,ESE,117,1.0,11.0,35,0.00,,,0.00,,2013-07-02 23:11:00,
2013-07-02 18:22:00,77.0,47.0,30.11,East,85,0.0,11.0,35,0.00,,,0.00,,2013-07-02 23:22:00,
2013-07-02 18:33:00,77.0,47.0,30.11,East,85,0.0,11.0,35,0.00,,,0.00,,2013-07-02 23:33:00,
2013-07-02 18:44:00,77.0,47.0,30.11,East,85,0.0,11.0,35,0.00,,,0.00,,2013-07-02 23:44:00,
2013-07-02 18:52:00,79.0,47.0,30.08,SSE,154,1.0,7.0,33,0.00,,,0.00,,2013-07-02 23:52:00,
2013-07-02 19:01:00,79.0,47.0,30.08,SSE,154,1.0,7.0,33,0.00,,,0.00,,2013-07-03 00:01:00,
2013-07-02 19:11:00,79.0,47.0,30.08,SSE,154,1.0,7.0,33,0.00,,,0.00,,2013-07-03 00:11:00,
2013-07-02 19:22:00,79.0,47.0,30.08,ESE,107,2.0,8.0,33,0.00,,,0.00,,2013-07-03 00:22:00,
2013-07-02 19:33:00,79.0,47.0,30.08,ESE,107,2.0,8.0,33,0.00,,,0.00,,2013-07-03 00:33:00,
2013-07-02 19:44:00,79.0,47.0,30.08,ESE,107,2.0,8.0,33,0.00,,,0.00,,2013-07-03 00:44:00,
2013-07-02 19:52:00,78.0,48.0,30.07,ESE,112,2.0,7.0,35,0.00,,,0.00,,2013-07-03 00:52:00,
2013-07-02 20:01:00,78.0,48.0,30.07,ESE,112,2.0,7.0,35,0.00,,,0.00,,2013-07-03 01:01:00,
2013-07-02 20:11:00,78.0,48.0,30.07,ESE,112,2.0,7.0,35,0.00,,,0.00,,2013-07-03 01:11:00,
2013-07-02 20:22:00,77.0,50.0,30.09,ESE,123,0.0,8.0,39,0.00,,,0.00,,2013-07-03 01:22:00,
2013-07-02 20:33:00,77.0,50.0,30.09,ESE,123,0.0,8.0,39,0.00,,,0.00,,2013-07-03 01:33:00,
2013-07-02 20:43:00,77.0,50.0,30.09,ESE,123,0.0,8.0,39,0.00,,,0.00,,2013-07-03 01:43:00,
2013-07-02 20:59:00,77.0,50.0,30.09,ESE,123,0.0,8.0,39,0.00,,,0.00,,2013-07-03 01:59:00,
2013-07-02 21:13:00,74.0,48.0,30.08,ESE,107,2.0,10.0,40,0.00,,,0.00,,2013-07-03 02:13:00,
2013-07-02 21:26:00,74.0,48.0,30.08,ESE,107,2.0,10.0,40,0.00,,,0.00,,2013-07-03 02:26:00,
2013-07-02 21:38:00,74.0,48.0,30.08,ESE,107,2.0,10.0,40,0.00,,,0.00,,2013-07-03 02:38:00,
2013-07-02 21:43:00,74.0,48.0,30.08,ESE,107,2.0,10.0,40,0.00,,,0.00,,2013-07-03 02:43:00,
2013-07-02 21:59:00,71.0,49.0,30.09,East,92,0.0,3.0,46,0.00,,,0.00,,2013-07-03 02:59:00,
2013-07-02 22:13:00,71.0,49.0,30.09,East,92,0.0,3.0,46,0.00,,,0.00,,2013-07-03 03:13:00,
2013-07-02 22:25:00,70.0,48.0,30.12,East,86,0.0,6.0,46,0.00,,,0.00,,2013-07-03 03:25:00,
2013-07-02 22:35:00,70.0,48.0,30.12,East,86,0.0,6.0,46,0.00,,,0.00,,2013-07-03 03:35:00,
2013-07-02 22:49:00,70.0,48.0,30.12,East,86,0.0,6.0,46,0.00,,,0.00,,2013-07-03 03:49:00,
2013-07-02 22:58:00,69.0,48.0,30.11,East,99,0.0,0.0,47,0.00,,,0.00,,2013-07-03 03:58:00,
2013-07-02 23:01:00,69.0,48.0,30.11,East,99,0.0,0.0,47,0.00,,,0.00,,2013-07-03 04:01:00,
2013-07-02 23:11:00,69.0,48.0,30.11,East,99,0.0,0.0,47,0.00,,,0.00,,2013-07-03 04:11:00,
2013-07-02 23:22:00,68.0,48.0,30.13,East,100,0.0,0.0,48,0.00,,,0.00,,2013-07-03 04:22:00,
2013-07-02 23:33:00,68.0,48.0,30.13,East,100,0.0,0.0,48,0.00,,,0.00,,2013-07-03 04:33:00,
2013-07-02 23:43:00,68.0,48.0,30.13,East,100,0.0,0.0,48,0.00,,,0.00,,2013-07-03 04:43:00,
2013-07-02 23:52:00,67.0,47.0,30.13,East,82,0.0,0.0,48,0.00,,,0.00,,2013-07-03 04:52:00,